Location: Unspecified
(0.0000°N, 0.0000°E)
Time: 06:32:53
(UTC+00:00)

A-11 Canister half - Pass Details

Date: 19 November 2019
Orbit: 1515 x 1685 km, 47.2° (Epoch: 10 December)

Event Time Altitude Azimuth Distance (km) Brightness Sun altitude
Rises 15:44:40 0° 239° (WSW) 4,764 12.8 28.3°
Reaches altitude 10° 15:48:00 10° 246° (WSW) 3,802 12.9 27.5°
Maximum altitude 15:56:44 38° 311° (NW) 2,311 10.6 25.5°
Drops below altitude 10° 16:05:45 10° 16° (NNE) 3,907 10.9 23.4°
Sets 16:09:18 0° 24° (NNE) 4,908 11.2 22.6°
